Location: Mococo
(38.0255°N, 122.1161°W)
Time: 02:58:36
(UTC+00:00)

Cosmos 2082 - Visible Passes

Search period start: 16 May 2026 00:00
Search period end: 26 May 2026 00:00
Orbit: 834 x 852 km, 71.0° (Epoch: 15 May)

Date Brightness Start Highest point End Pass type
(mag) Time Alt. Az. Time Alt. Az. Time Alt. Az.
16 May 5.9 08:07:46 14° ENE 08:07:46 14° ENE 08:09:25 10° ENE visible
16 May 3.8 09:49:36 61° WNW 09:49:36 61° WNW 09:55:06 10° NNE visible
17 May 6.0 07:53:17 13° ENE 07:53:17 13° ENE 07:54:32 10° ENE visible
17 May 3.9 09:35:07 63° NW 09:35:07 63° NW 09:40:24 10° NNE visible
18 May 6.0 07:38:46 12° ENE 07:38:46 12° ENE 07:39:37 10° ENE visible
18 May 3.9 09:20:36 64° NNW 09:20:36 64° NNW 09:25:41 10° NNE visible
19 May 6.1 07:24:14 11° ENE 07:24:14 11° ENE 07:24:41 10° ENE visible
19 May 4.0 09:06:03 63° NNW 09:06:03 63° NNW 09:10:58 10° NNE visible
19 May 6.0 10:49:23 10° WNW 10:50:25 10° NW 10:51:27 10° NW visible
20 May 6.1 07:09:39 10° ENE 07:09:39 10° ENE 07:09:43 10° ENE visible
20 May 4.0 08:51:28 62° N 08:51:28 62° N 08:56:14 10° NNE visible
20 May 6.0 10:34:07 10° WNW 10:35:38 11° NW 10:37:10 10° NNW visible
21 May 4.1 08:36:51 61° N 08:36:51 61° N 08:41:31 10° NNE visible
21 May 6.0 10:18:59 10° WNW 10:20:52 12° NW 10:22:44 10° NNW visible
22 May 4.1 08:22:11 60° N 08:22:11 60° N 08:26:47 10° NNE visible
22 May 6.0 10:04:00 10° WNW 10:06:05 12° NW 10:08:15 10° NNW visible
23 May 4.1 08:07:31 60° NNE 08:07:31 60° NNE 08:12:03 10° NNE visible
23 May 6.0 09:49:19 11° WNW 09:51:18 13° NW 09:53:44 10° NNW visible
24 May 4.1 07:52:46 60° NNE 07:52:46 60° NNE 07:57:20 10° NNE visible
24 May 5.9 09:34:35 11° WNW 09:36:32 13° NW 09:39:11 10° NNW visible
25 May 4.0 07:38:00 61° NNE 07:38:00 61° NNE 07:42:35 10° NNE visible
25 May 5.9 09:19:48 12° WNW 09:21:46 14° NW 09:24:37 10° NNW visible
